Location: Unspecified
(29.9680°N, 0.0000°E)
Time: 08:45:59
(UTC+00:00)

Vanguard 3 - All Passes

Search period start: 24 June 2019 00:00
Search period end: 04 July 2019 00:00
Orbit: 508 x 3263 km, 33.3° (Epoch: 23 June)

Date Brightness Start Highest point End Pass type
(mag) Time Alt. Az. Time Alt. Az. Time Alt. Az.
24 Jun - 07:14:11 10° SSW 07:29:44 31° SE 07:41:38 10° E daylight
24 Jun - 09:27:43 10° SW 09:45:13 64° SSE 09:55:40 10° ENE daylight
24 Jun - 11:45:35 10° W 11:59:39 80° NNW 12:07:12 10° ENE daylight
24 Jun - 14:03:39 10° WNW 14:12:59 72° N 14:18:14 10° E daylight
24 Jun - 16:19:14 10° W 16:24:43 42° SSW 16:28:31 10° SE daylight
25 Jun - 06:01:03 10° S 06:13:22 20° SE 06:24:11 10° ESE daylight
25 Jun - 08:11:12 10° SW 08:29:09 49° SSE 08:41:20 10° E daylight
25 Jun - 10:27:35 10° WSW 10:44:21 86° SSE 10:53:45 10° ENE daylight
25 Jun - 12:46:22 10° W 12:58:28 71° N 13:05:01 10° E daylight
25 Jun - 15:03:23 10° WNW 15:11:13 79° SSW 15:15:50 10° ESE daylight
25 Jun - 17:19:29 10° WSW 17:21:54 14° SW 17:24:02 10° S daylight
26 Jun - 04:54:28 10° SE 04:56:58 10° SE 04:59:26 10° SE daylight
26 Jun - 06:55:54 10° SSW 07:12:48 36° SE 07:26:01 10° E daylight
26 Jun - 09:10:01 10° SW 09:28:32 71° SSE 09:39:54 10° ENE daylight
26 Jun - 11:28:21 10° W 11:43:26 78° N 11:51:38 10° ENE daylight
26 Jun - 13:46:48 10° WNW 13:57:08 78° N 14:02:48 10° E daylight
26 Jun - 16:02:57 10° W 16:08:49 36° SW 16:12:46 10° SSE daylight
27 Jun - 05:42:19 10° S 05:56:23 24° SE 06:08:57 10° E daylight
27 Jun - 07:53:20 10° SW 08:12:15 56° SSE 08:25:29 10° ENE daylight
27 Jun - 10:10:09 10° WSW 10:27:52 89° NNW 10:38:02 10° ENE daylight
27 Jun - 12:29:17 10° W 12:42:27 73° N 12:49:32 10° E daylight
27 Jun - 14:46:42 10° WNW 14:55:20 70° SSW 15:00:18 10° ESE daylight
27 Jun - 17:04:13 10° WSW 17:05:51 11° SW 17:07:19 10° SSW daylight
28 Jun - 04:32:11 10° SSE 04:40:05 14° SE 04:47:51 10° ESE visible
28 Jun - 06:37:54 10° SSW 06:55:43 42° SE 07:10:09 10° E daylight
28 Jun - 08:52:25 10° WSW 09:11:44 77° SSE 09:24:03 10° ENE daylight
28 Jun - 11:11:05 10° W 11:27:10 76° N 11:36:02 10° E daylight
28 Jun - 13:29:49 10° WNW 13:41:12 85° NNE 13:47:20 10° ESE daylight
28 Jun - 15:46:35 10° W 15:52:49 31° SW 15:56:57 10° SSE daylight
29 Jun - 05:24:02 10° S 05:39:14 29° SE 05:53:18 10° E daylight
29 Jun - 07:35:39 10° SW 07:55:12 62° SSE 08:09:29 10° ENE daylight
29 Jun - 09:52:45 10° WSW 10:11:17 85° NNW 10:22:15 10° ENE daylight
29 Jun - 12:12:07 10° W 12:26:21 76° N 12:34:01 10° E daylight
29 Jun - 14:29:54 10° WNW 14:39:22 62° SSW 14:44:43 10° SE daylight
30 Jun - 04:12:46 10° SSE 04:23:02 17° SE 04:33:25 10° ESE visible
30 Jun - 06:20:09 10° SSW 06:38:29 47° SE 06:54:05 10° E daylight
30 Jun - 08:34:57 10° WSW 08:54:51 82° SSE 09:08:06 10° ENE daylight
30 Jun - 10:53:47 10° W 11:10:49 76° N 11:20:23 10° E daylight
30 Jun - 13:12:44 10° WNW 13:25:09 89° SSW 13:31:48 10° ESE daylight
30 Jun - 15:30:09 10° W 15:36:43 27° SW 15:41:04 10° SSE daylight
01 Jul - 05:06:08 10° SSW 05:21:58 33° SE 05:37:19 10° E daylight
01 Jul - 07:18:10 10° SW 07:38:02 68° SSE 07:53:22 10° ENE daylight
01 Jul - 09:35:25 10° W 09:54:37 83° NNW 10:06:26 10° ENE daylight
01 Jul - 11:54:52 10° W 12:10:09 79° N 12:18:27 10° E daylight
01 Jul - 14:12:59 10° WNW 14:23:16 55° SSW 14:29:03 10° SE daylight
02 Jul - 03:54:14 10° S 04:05:51 20° SE 04:18:05 10° E visible
02 Jul - 06:02:38 10° SW 06:21:10 52° SE 06:37:49 10° ENE daylight
02 Jul - 08:17:37 10° WSW 08:37:52 87° SSE 08:52:04 10° ENE daylight
02 Jul - 10:36:30 10° W 10:54:22 77° N 11:04:43 10° E daylight
02 Jul - 12:55:33 10° WNW 13:09:00 82° SSW 13:16:13 10° ESE daylight
02 Jul - 15:13:39 10° W 15:20:29 25° SW 15:25:05 10° S daylight
03 Jul - 04:48:32 10° SSW 05:04:36 37° SE 05:21:04 10° E daylight
03 Jul - 07:00:52 10° SW 07:20:47 73° SSE 07:37:07 10° ENE daylight
03 Jul - 09:18:09 10° W 09:37:52 81° N 09:50:34 10° E daylight
03 Jul - 11:37:33 10° WNW 11:53:52 83° NNE 12:02:51 10° E daylight
03 Jul - 13:55:59 10° WNW 14:07:03 49° SW 14:13:19 10° SE daylight
